|
Cosmos 1898 Rocket - Orbit
|
Unspecified;
13:21:48
| Home | Info | Passes |
|
View from above orbital plane
|
View from above satellite
|
Ground track
|
The orbit data is extracted from the following two-line orbital elements,
1 18586U 87098B 13143.70458441 .00000105 00000-0 44874-4 0 7473
2 18586 074.0061 149.7014 0021386 200.9344 207.9493 14.36220923334057
| Epoch (UTC): | 23 May 2013 16:54:36 |
| Eccentricity: | 0.0021386 |
| inclination: | 74.0061° |
| perigee height: | 756 km |
| apogee height: | 786 km |
| right ascension of ascending node: | 149.7014° |
| argument of perigee: | 200.9344° |
| revolutions per day: | 14.36220923 |
| mean anomaly at epoch: | 207.9493° |
| orbit number at epoch: | 33405 |
The dashed part of the orbit path shows where the satellite is in the earth's shadow,
|
|